sat.trackr.live / text

‹ back to catalog

STARLINK-32401

NORAD 61865 · 2024-202W

PAYLOAD ACTIVE UNKNOWN

§ Identity

Operator
Country
US
Launch date
2024-11-07
Launch site
AFETR
Launch vehicle
Mass (kg)
RCS (m²)

Purposes: comms

External: N2YO · Heavens-Above · Gunter

§ Orbital elements

Epoch: 2026-09-21T06:15:58.243392Z

Period
94.27 min
Inclination
43.0024°
Eccentricity
0.0001214
Mean motion
15.27578025 rev/d
Perigee alt
482.2 km
Apogee alt
483.9 km
Semi-major
6,861.2 km
B*
1.5092e-5
RAAN
213.8578°
Arg perigee
270.1376°
Mean anomaly
89.9336°
Rev number
10,524

§ Raw data

STARLINK-324011 61865U 24202W   26264.26109078  .00000153  00000+0  15092-4 0  99982 61865  43.0024 213.8578 0001214 270.1376  89.9336 15.27578025105241

JSON: /api/v1/satellites/61865 · /tle

For live sub-satellite position, see the globe view (requires WebGL).

§ Visibility from observer

Set your observer location to see the next 7 days of passes ≥ 10°. The values pass through the URL so the page stays shareable.

No JS? Fill the form by hand. The geolocation button needs JavaScript.